| time (UTC) | temp C | wind direction | speed KPH | gust KPH | rain 1hr cm | rain 24hr cm | rain mn cm | humidity % | barometer mb |
| 20260505192012 | 5 | 0 | 27.4 | 27.4 | 0.00 | 0.00 | 0.00 | 36 | 88.8 |
| 20260505191012 | 5 | 22 | 35.4 | 35.4 | 0.00 | 0.00 | 0.00 | 34 | 88.8 |
| 20260505190012 | 5 | 0 | 32.2 | 32.2 | 0.00 | 0.00 | 0.00 | 36 | 88.8 |
| 20260505185012 | 5 | 315 | 22.5 | 22.5 | 0.00 | 0.00 | 0.00 | 36 | 88.8 |
| 20260505184012 | 5 | 292 | 27.4 | 27.4 | 0.00 | 0.00 | 0.00 | 37 | 88.8 |
| 20260505183012 | 5 | 0 | 17.7 | 17.7 | 0.00 | 0.00 | 0.00 | 36 | 88.8 |
| 20260505182012 | 4 | 338 | 32.2 | 32.2 | 0.00 | 0.00 | 0.00 | 39 | 88.8 |
| 20260505181012 | 4 | 22 | 30.6 | 30.6 | 0.00 | 0.00 | 0.00 | 40 | 88.8 |
| 20260505180011 | 4 | 338 | 30.6 | 30.6 | 0.00 | 0.00 | 0.00 | 42 | 88.8 |
| 20260505175011 | 4 | 22 | 37.0 | 37.0 | 0.00 | 0.00 | 0.00 | 40 | 88.8 |
| 20260505174012 | 4 | 338 | 30.6 | 30.6 | 0.00 | 0.00 | 0.00 | 43 | 88.8 |
| 20260505173011 | 3 | 292 | 33.8 | 33.8 | 0.00 | 0.00 | 0.00 | 47 | 88.8 |
| 20260505172012 | 3 | 338 | 24.1 | 24.1 | 0.00 | 0.00 | 0.00 | 51 | 88.8 |
| 20260505171012 | 3 | 0 | 24.1 | 24.1 | 0.00 | 0.00 | 0.00 | 50 | 88.8 |
| 20260505170012 | 3 | 0 | 30.6 | 30.6 | 0.00 | 0.00 | 0.00 | 51 | 88.8 |
| 20260505165012 | 3 | 0 | 22.5 | 22.5 | 0.00 | 0.00 | 0.00 | 50 | 88.8 |
| 20260505164012 | 2 | 315 | 29.0 | 29.0 | 0.00 | 0.00 | 0.00 | 51 | 88.8 |
| 20260505163012 | 2 | 338 | 19.3 | 19.3 | 0.00 | 0.00 | 0.00 | 52 | 88.8 |
| 20260505162011 | 2 | 0 | 22.5 | 22.5 | 0.00 | 0.00 | 0.00 | 53 | 88.8 |
| 20260505161012 | 2 | 338 | 30.6 | 30.6 | 0.00 | 0.00 | 0.00 | 52 | 88.8 |
| 20260505153011 | 2 | 338 | 30.6 | 30.6 | 0.00 | 0.00 | 0.00 | 56 | 88.8 |
| 20260505152011 | 2 | 315 | 25.7 | 25.7 | 0.00 | 0.00 | 0.00 | 57 | 88.8 |
| 20260505151012 | 2 | 22 | 25.7 | 25.7 | 0.00 | 0.00 | 0.00 | 60 | 88.8 |
| 20260505125012 | -4 | 0 | 16.1 | 16.1 | 0.00 | 0.00 | 0.00 | 93 | 88.8 |
| 20260505124012 | -4 | 338 | 14.5 | 14.5 | 0.00 | 0.00 | 0.00 | 94 | 88.8 |
| 20260505123011 | -4 | 315 | 11.3 | 11.3 | 0.00 | 0.00 | 0.00 | 96 | 88.8 |
| 20260505122012 | -4 | 292 | 14.5 | 14.5 | 0.00 | 0.00 | 0.00 | 96 | 88.8 |
| 20260505121012 | -4 | 338 | 12.9 | 12.9 | 0.00 | 0.00 | 0.00 | 97 | 88.8 |
| 20260505120012 | -4 | 315 | 12.9 | 12.9 | 0.00 | 0.00 | 0.00 | 98 | 88.8 |
| 20260505115012 | -4 | 0 | 11.3 | 11.3 | 0.00 | 0.00 | 0.00 | 99 | 88.8 |
| 20260505114011 | -4 | 315 | 11.3 | 11.3 | 0.00 | 0.00 | 0.00 | 99 | 88.8 |
| 20260505113011 | -4 | 338 | 12.9 | 12.9 | 0.00 | 0.00 | 0.00 | 99 | 88.8 |
| 20260505112012 | -4 | 315 | 12.9 | 12.9 | 0.00 | 0.00 | 0.00 | 99 | 88.8 |
| 20260505111012 | -4 | 338 | 11.3 | 11.3 | 0.00 | 0.00 | 0.00 | 99 | 88.8 |
| 20260505102012 | -4 | 338 | 12.9 | 12.9 | 0.00 | 0.00 | 0.00 | 96 | 88.8 |
| 20260505101012 | -4 | 292 | 11.3 | 11.3 | 0.00 | 0.00 | 0.00 | 96 | 88.8 |
| 20260505100011 | -4 | 292 | 9.7 | 9.7 | 0.00 | 0.00 | 0.00 | 95 | 88.8 |
| 20260505095012 | -4 | 338 | 11.3 | 11.3 | 0.00 | 0.00 | 0.00 | 94 | 88.8 |
| 20260505094011 | -4 | 292 | 9.7 | 9.7 | 0.00 | 0.00 | 0.00 | 93 | 88.8 |
| 20260505093012 | -4 | 292 | 11.3 | 11.3 | 0.00 | 0.00 | 0.00 | 92 | 88.8 |
| 20260505092013 | -4 | 338 | 12.9 | 12.9 | 0.00 | 0.00 | 0.00 | 91 | 88.8 |
| 20260505091012 | -4 | 338 | 11.3 | 11.3 | 0.00 | 0.00 | 0.00 | 89 | 88.8 |
| 20260505085012 | -4 | 22 | 11.3 | 11.3 | 0.00 | 0.00 | 0.00 | 88 | 88.8 |
| 20260505084012 | -4 | 315 | 9.7 | 9.7 | 0.00 | 0.00 | 0.00 | 88 | 88.8 |
| 20260505083011 | -4 | 292 | 11.3 | 11.3 | 0.00 | 0.00 | 0.00 | 87 | 88.8 |
| 20260505082012 | -4 | 338 | 8.0 | 8.0 | 0.00 | 0.00 | 0.00 | 87 | 88.8 |
| 20260505081012 | -4 | 22 | 8.0 | 8.0 | 0.00 | 0.00 | 0.00 | 86 | 88.8 |
| 20260505080011 | -4 | 292 | 11.3 | 11.3 | 0.00 | 0.00 | 0.00 | 85 | 88.8 |
| 20260505075012 | -3 | 315 | 11.3 | 11.3 | 0.00 | 0.00 | 0.00 | 84 | 88.8 |
| 20260505074011 | -3 | 338 | 8.0 | 8.0 | 0.00 | 0.00 | 0.00 | 83 | 88.8 |
| 20260505073011 | -3 | 338 | 14.5 | 14.5 | 0.00 | 0.00 | 0.00 | 82 | 88.8 |
| 20260505072012 | -3 | 292 | 9.7 | 9.7 | 0.00 | 0.00 | 0.00 | 81 | 88.8 |
| 20260505071011 | -2 | 338 | 12.9 | 12.9 | 0.00 | 0.00 | 0.00 | 80 | 88.8 |
| 20260505070013 | -2 | 315 | 12.9 | 12.9 | 0.00 | 0.00 | 0.00 | 79 | 88.8 |
| 20260505065011 | -2 | 338 | 14.5 | 14.5 | 0.00 | 0.00 | 0.00 | 78 | 88.8 |
| 20260505064012 | -2 | 0 | 11.3 | 11.3 | 0.00 | 0.00 | 0.00 | 77 | 88.8 |
| 20260505063013 | -1 | 22 | 14.5 | 14.5 | 0.00 | 0.00 | 0.00 | 76 | 88.8 |
| 20260505062012 | -1 | 0 | 17.7 | 17.7 | 0.00 | 0.00 | 0.00 | 73 | 88.8 |
| 20260505061011 | 0 | 22 | 17.7 | 17.7 | 0.00 | 0.00 | 0.00 | 71 | 88.8 |
| 20260505060013 | 0 | 22 | 25.7 | 25.7 | 0.00 | 0.00 | 0.00 | 70 | 88.8 |
| 20260505055011 | 0 | 22 | 22.5 | 22.5 | 0.00 | 0.00 | 0.00 | 69 | 88.8 |
| 20260505052011 | 1 | 22 | 22.5 | 22.5 | 0.00 | 0.00 | 0.00 | 70 | 88.8 |
| 20260505051012 | 1 | 22 | 29.0 | 29.0 | 0.00 | 0.00 | 0.00 | 70 | 88.8 |
| 20260505041012 | 1 | 0 | 20.9 | 20.9 | 0.00 | 0.00 | 0.00 | 70 | 88.8 |
| 20260505040011 | 1 | 45 | 20.9 | 20.9 | 0.00 | 0.00 | 0.00 | 71 | 88.8 |
| 20260505035011 | 1 | 0 | 20.9 | 20.9 | 0.00 | 0.00 | 0.00 | 72 | 88.8 |
| 20260505034012 | 1 | 0 | 25.7 | 25.7 | 0.00 | 0.00 | 0.00 | 71 | 88.8 |
| 20260505033013 | 2 | 22 | 16.1 | 16.1 | 0.00 | 0.00 | 0.00 | 70 | 88.8 |
| 20260505032011 | 2 | 0 | 29.0 | 29.0 | 0.00 | 0.00 | 0.00 | 69 | 88.8 |
| 20260505031012 | 2 | 22 | 22.5 | 22.5 | 0.00 | 0.00 | 0.00 | 69 | 88.8 |
| 20260505030012 | 2 | 0 | 25.7 | 25.7 | 0.00 | 0.00 | 0.00 | 70 | 88.8 |
| 20260505025013 | 2 | 0 | 17.7 | 17.7 | 0.00 | 0.00 | 0.00 | 71 | 88.8 |
| 20260505024011 | 2 | 338 | 17.7 | 17.7 | 0.00 | 0.00 | 0.00 | 70 | 88.8 |
| 20260505023012 | 2 | 0 | 25.7 | 25.7 | 0.00 | 0.00 | 0.00 | 70 | 88.8 |
| 20260505022012 | 2 | 338 | 27.4 | 27.4 | 0.00 | 0.00 | 0.00 | 70 | 88.8 |
| 20260505021012 | 2 | 0 | 29.0 | 29.0 | 0.00 | 0.00 | 0.00 | 70 | 88.8 |
| 20260505020011 | 2 | 0 | 27.4 | 27.4 | 0.00 | 0.00 | 0.00 | 69 | 88.8 |
| 20260505015012 | 2 | 315 | 22.5 | 22.5 | 0.00 | 0.00 | 0.00 | 69 | 88.8 |
| 20260505014011 | 2 | 0 | 25.7 | 25.7 | 0.00 | 0.00 | 0.00 | 69 | 88.8 |
| 20260505013012 | 2 | 0 | 30.6 | 30.6 | 0.00 | 0.00 | 0.00 | 69 | 88.8 |
| 20260505012012 | 2 | 0 | 32.2 | 32.2 | 0.00 | 0.00 | 0.00 | 68 | 88.8 |
| 20260505011012 | 2 | 22 | 30.6 | 30.6 | 0.00 | 0.00 | 0.00 | 68 | 88.8 |
| 20260505010011 | 2 | 338 | 25.7 | 25.7 | 0.00 | 0.00 | 0.00 | 68 | 88.8 |
| 20260505005011 | 2 | 338 | 30.6 | 30.6 | 0.00 | 0.00 | 0.00 | 68 | 88.8 |
| 20260505004011 | 3 | 22 | 17.7 | 17.7 | 0.00 | 0.00 | 0.00 | 68 | 88.8 |
| 20260505003011 | 3 | 338 | 30.6 | 30.6 | 0.00 | 0.00 | 0.00 | 67 | 88.8 |
| 20260505002012 | 3 | 338 | 22.5 | 22.5 | 0.00 | 0.00 | 0.00 | 67 | 88.8 |
| 20260505001012 | 3 | 0 | 33.8 | 33.8 | 0.00 | 0.00 | 0.00 | 67 | 88.8 |
| 20260505000012 | 3 | 0 | 33.8 | 33.8 | 0.00 | 0.00 | 0.00 | 67 | 88.8 |
| 20260504235012 | 3 | 0 | 27.4 | 27.4 | 0.00 | 0.00 | 0.00 | 67 | 88.8 |
| 20260504234012 | 3 | 0 | 30.6 | 30.6 | 0.00 | 0.00 | 0.00 | 67 | 88.8 |
| 20260504233012 | 3 | 0 | 33.8 | 33.8 | 0.00 | 0.00 | 0.00 | 67 | 88.8 |
| 20260504232012 | 3 | 315 | 24.1 | 24.1 | 0.00 | 0.00 | 0.00 | 67 | 88.8 |
| 20260504231012 | 3 | 315 | 19.3 | 19.3 | 0.00 | 0.00 | 0.00 | 67 | 88.8 |
| 20260504230011 | 3 | 0 | 32.2 | 32.2 | 0.00 | 0.00 | 0.00 | 67 | 88.8 |
| 20260504225011 | 3 | 0 | 25.7 | 25.7 | 0.00 | 0.00 | 0.00 | 67 | 88.8 |
| 20260504224012 | 3 | 0 | 27.4 | 27.4 | 0.00 | 0.00 | 0.00 | 67 | 88.8 |
| 20260504223012 | 3 | 338 | 25.7 | 25.7 | 0.00 | 0.00 | 0.00 | 67 | 88.8 |
| 20260504222012 | 3 | 22 | 30.6 | 30.6 | 0.00 | 0.00 | 0.00 | 67 | 88.8 |
| 20260504221012 | 4 | 0 | 24.1 | 24.1 | 0.00 | 0.00 | 0.00 | 66 | 88.8 |
| 20260504220012 | 4 | 0 | 29.0 | 29.0 | 0.00 | 0.00 | 0.00 | 66 | 88.8 |
| 20260504215011 | 4 | 338 | 29.0 | 29.0 | 0.00 | 0.00 | 0.00 | 66 | 88.8 |
| 20260504214011 | 3 | 338 | 27.4 | 27.4 | 0.00 | 0.00 | 0.00 | 66 | 88.8 |
| 20260504213012 | 3 | 338 | 33.8 | 33.8 | 0.00 | 0.00 | 0.00 | 67 | 88.8 |
| 20260504212011 | 3 | 0 | 22.5 | 22.5 | 0.00 | 0.00 | 0.00 | 67 | 88.8 |
| 20260504211012 | 3 | 22 | 32.2 | 32.2 | 0.00 | 0.00 | 0.00 | 67 | 88.8 |
| 20260504210012 | 4 | 0 | 29.0 | 29.0 | 0.00 | 0.00 | 0.00 | 66 | 88.8 |
| 20260504205011 | 4 | 22 | 43.5 | 43.5 | 0.00 | 0.00 | 0.00 | 66 | 88.8 |
| 20260504204012 | 4 | 338 | 25.7 | 25.7 | 0.00 | 0.00 | 0.00 | 67 | 88.8 |
| 20260504203011 | 3 | 338 | 27.4 | 27.4 | 0.00 | 0.00 | 0.00 | 67 | 88.8 |
| 20260504202011 | 3 | 22 | 29.0 | 29.0 | 0.00 | 0.00 | 0.00 | 67 | 88.8 |
| 20260504201012 | 3 | 22 | 19.3 | 19.3 | 0.00 | 0.00 | 0.00 | 66 | 88.8 |
| 20260504200011 | 3 | 22 | 25.7 | 25.7 | 0.00 | 0.00 | 0.00 | 67 | 88.8 |
| 20260504195012 | 3 | 338 | 19.3 | 19.3 | 0.00 | 0.00 | 0.00 | 65 | 88.8 |
| 20260504194012 | 4 | 0 | 29.0 | 29.0 | 0.00 | 0.00 | 0.00 | 65 | 88.8 |
| 20260504193012 | 4 | 338 | 35.4 | 35.4 | 0.00 | 0.00 | 0.00 | 65 | 88.8 |